Time,TemperatureF,DewpointF,PressureIn,WindDirection,WindDirectionDegrees,WindSpeedMPH,WindSpeedGustMPH,Humidity,HourlyPrecipIn,Conditions,Clouds,dailyrainin,SoftwareType,DateUTC
2013-02-10 00:01:00,20.0,16.0,-100.00,West,262,10.0,17.0,83,-99.99,,,-99.99,,2013-02-10 07:01:00,
2013-02-10 00:11:00,20.0,16.0,-100.00,West,268,9.0,13.0,82,-99.99,,,-99.99,,2013-02-10 07:11:00,
2013-02-10 00:21:00,20.0,16.0,-100.00,West,268,9.0,13.0,82,-99.99,,,-99.99,,2013-02-10 07:21:00,
2013-02-10 00:31:00,20.0,16.0,-100.00,West,268,9.0,13.0,82,-99.99,,,-99.99,,2013-02-10 07:31:00,
2013-02-10 00:41:00,20.0,16.0,-100.00,West,261,8.0,14.0,84,-99.99,,,-99.99,,2013-02-10 07:41:00,
2013-02-10 00:52:00,20.0,16.0,-100.00,West,261,8.0,14.0,84,-99.99,,,-99.99,,2013-02-10 07:52:00,
2013-02-10 01:01:00,20.0,16.0,-100.00,WSW,255,7.0,10.0,85,-99.99,,,-99.99,,2013-02-10 08:01:00,
2013-02-10 01:11:00,20.0,16.0,-100.00,West,268,6.0,10.0,84,-99.99,,,-99.99,,2013-02-10 08:11:00,
2013-02-10 01:21:00,20.0,16.0,-100.00,West,268,6.0,10.0,84,-99.99,,,-99.99,,2013-02-10 08:21:00,
2013-02-10 01:31:00,20.0,16.0,-100.00,West,268,6.0,10.0,84,-99.99,,,-99.99,,2013-02-10 08:31:00,
2013-02-10 01:43:00,20.0,16.0,-100.00,West,264,7.0,12.0,85,-99.99,,,-99.99,,2013-02-10 08:43:00,
2013-02-10 01:52:00,20.0,16.0,-100.00,West,264,7.0,12.0,85,-99.99,,,-99.99,,2013-02-10 08:52:00,
2013-02-10 02:02:00,19.0,16.0,-100.00,West,260,7.0,12.0,85,-99.99,,,-99.99,,2013-02-10 09:02:00,
2013-02-10 02:11:00,19.0,15.0,-100.00,WSW,254,8.0,12.0,85,-99.99,,,-99.99,,2013-02-10 09:11:00,
2013-02-10 02:21:00,19.0,15.0,-100.00,WSW,254,8.0,12.0,85,-99.99,,,-99.99,,2013-02-10 09:21:00,
2013-02-10 02:31:00,19.0,15.0,-100.00,WSW,254,8.0,12.0,85,-99.99,,,-99.99,,2013-02-10 09:31:00,
2013-02-10 02:41:00,18.0,15.0,-100.00,WSW,251,9.0,14.0,86,-99.99,,,-99.99,,2013-02-10 09:41:00,
2013-02-10 02:52:00,18.0,15.0,-100.00,WSW,251,9.0,14.0,86,-99.99,,,-99.99,,2013-02-10 09:52:00,
2013-02-10 03:01:00,18.0,15.0,-100.00,WSW,248,8.0,14.0,87,-99.99,,,-99.99,,2013-02-10 10:01:00,
2013-02-10 03:11:00,18.0,15.0,-100.00,West,261,5.0,12.0,86,-99.99,,,-99.99,,2013-02-10 10:11:00,
2013-02-10 03:21:00,18.0,15.0,-100.00,West,261,5.0,12.0,86,-99.99,,,-99.99,,2013-02-10 10:21:00,
2013-02-10 03:31:00,18.0,15.0,-100.00,West,261,5.0,12.0,86,-99.99,,,-99.99,,2013-02-10 10:31:00,
2013-02-10 03:41:00,18.0,15.0,-100.00,WNW,295,2.0,6.0,86,-99.99,,,-99.99,,2013-02-10 10:41:00,
2013-02-10 03:52:00,18.0,15.0,-100.00,WNW,295,2.0,6.0,86,-99.99,,,-99.99,,2013-02-10 10:52:00,
2013-02-10 04:01:00,18.0,15.0,-100.00,NW,305,2.0,5.0,85,-99.99,,,-99.99,,2013-02-10 11:01:00,
2013-02-10 04:11:00,18.0,15.0,-100.00,NNW,328,2.0,6.0,85,-99.99,,,-99.99,,2013-02-10 11:11:00,
2013-02-10 04:21:00,18.0,15.0,-100.00,NNW,328,2.0,6.0,85,-99.99,,,-99.99,,2013-02-10 11:21:00,
2013-02-10 04:31:00,18.0,15.0,-100.00,NNW,328,2.0,6.0,85,-99.99,,,-99.99,,2013-02-10 11:31:00,
2013-02-10 04:42:00,19.0,15.0,-100.00,NNE,26,1.0,2.0,84,-99.99,,,-99.99,,2013-02-10 11:42:00,
2013-02-10 04:52:00,19.0,15.0,-100.00,NNE,26,1.0,2.0,84,-99.99,,,-99.99,,2013-02-10 11:52:00,
2013-02-10 05:01:00,19.0,15.0,-100.00,SW,230,2.0,3.0,84,-99.99,,,-99.99,,2013-02-10 12:01:00,
2013-02-10 05:12:00,19.0,15.0,-100.00,NNW,327,1.0,2.0,85,-99.99,,,-99.99,,2013-02-10 12:12:00,
2013-02-10 05:21:00,19.0,15.0,-100.00,NNW,327,1.0,2.0,85,-99.99,,,-99.99,,2013-02-10 12:21:00,
2013-02-10 05:32:00,19.0,15.0,-100.00,NNW,327,1.0,2.0,85,-99.99,,,-99.99,,2013-02-10 12:32:00,
2013-02-10 05:41:00,19.0,16.0,-100.00,East,89,2.0,4.0,85,-99.99,,,-99.99,,2013-02-10 12:41:00,
2013-02-10 05:52:00,19.0,16.0,-100.00,East,89,2.0,4.0,85,-99.99,,,-99.99,,2013-02-10 12:52:00,
2013-02-10 06:02:00,19.0,16.0,-100.00,SW,222,1.0,4.0,86,-99.99,,,-99.99,,2013-02-10 13:02:00,
2013-02-10 06:11:00,20.0,16.0,-100.00,SSE,157,1.0,2.0,86,-99.99,,,-99.99,,2013-02-10 13:11:00,
2013-02-10 06:21:00,20.0,16.0,-100.00,SSE,157,1.0,2.0,86,-99.99,,,-99.99,,2013-02-10 13:21:00,
2013-02-10 06:31:00,20.0,16.0,-100.00,SSE,157,1.0,2.0,86,-99.99,,,-99.99,,2013-02-10 13:31:00,
2013-02-10 06:41:00,19.0,15.0,-100.00,NW,304,2.0,6.0,85,-99.99,,,-99.99,,2013-02-10 13:41:00,
2013-02-10 06:52:00,19.0,15.0,-100.00,NW,304,2.0,6.0,85,-99.99,,,-99.99,,2013-02-10 13:52:00,
2013-02-10 07:02:00,19.0,15.0,-100.00,WNW,290,2.0,6.0,85,-99.99,,,-99.99,,2013-02-10 14:02:00,
2013-02-10 07:11:00,18.0,14.0,-100.00,West,270,1.0,2.0,86,-99.99,,,-99.99,,2013-02-10 14:11:00,
2013-02-10 07:21:00,18.0,14.0,-100.00,West,270,1.0,2.0,86,-99.99,,,-99.99,,2013-02-10 14:21:00,
2013-02-10 07:31:00,18.0,14.0,-100.00,West,270,1.0,2.0,86,-99.99,,,-99.99,,2013-02-10 14:31:00,
2013-02-10 07:41:00,16.0,13.0,-100.00,North,3,0.0,3.0,86,-99.99,,,-99.99,,2013-02-10 14:41:00,
2013-02-10 07:52:00,16.0,13.0,-100.00,North,3,0.0,3.0,86,-99.99,,,-99.99,,2013-02-10 14:52:00,
2013-02-10 08:01:00,15.0,13.0,-100.00,NNW,339,1.0,2.0,87,-99.99,,,-99.99,,2013-02-10 15:01:00,
2013-02-10 08:11:00,13.0,10.0,-100.00,SSW,194,1.0,2.0,85,-99.99,,,-99.99,,2013-02-10 15:11:00,
2013-02-10 08:21:00,13.0,10.0,-100.00,SSW,194,1.0,2.0,85,-99.99,,,-99.99,,2013-02-10 15:21:00,
2013-02-10 08:31:00,13.0,10.0,-100.00,SSW,194,1.0,2.0,85,-99.99,,,-99.99,,2013-02-10 15:31:00,
2013-02-10 08:41:00,15.0,12.0,-100.00,South,170,0.0,2.0,85,-99.99,,,-99.99,,2013-02-10 15:41:00,
2013-02-10 08:52:00,15.0,12.0,-100.00,South,170,0.0,2.0,85,-99.99,,,-99.99,,2013-02-10 15:52:00,
2013-02-10 09:01:00,17.0,12.0,-100.00,SSW,208,1.0,2.0,82,-99.99,,,-99.99,,2013-02-10 16:01:00,
2013-02-10 09:11:00,17.0,13.0,-100.00,SE,141,0.0,1.0,82,-99.99,,,-99.99,,2013-02-10 16:11:00,
2013-02-10 09:21:00,17.0,13.0,-100.00,SE,141,0.0,1.0,82,-99.99,,,-99.99,,2013-02-10 16:21:00,
2013-02-10 09:31:00,17.0,13.0,-100.00,SE,141,0.0,1.0,82,-99.99,,,-99.99,,2013-02-10 16:31:00,
2013-02-10 09:42:00,20.0,14.0,-100.00,WSW,245,1.0,2.0,77,-99.99,,,-99.99,,2013-02-10 16:42:00,
2013-02-10 09:52:00,20.0,14.0,-100.00,WSW,245,1.0,2.0,77,-99.99,,,-99.99,,2013-02-10 16:52:00,
2013-02-10 10:01:00,21.0,15.0,-100.00,ESE,105,1.0,3.0,76,-99.99,,,-99.99,,2013-02-10 17:01:00,
2013-02-10 10:11:00,22.0,15.0,-100.00,ENE,73,2.0,7.0,74,-99.99,,,-99.99,,2013-02-10 17:11:00,
2013-02-10 10:21:00,22.0,15.0,-100.00,ENE,73,2.0,7.0,74,-99.99,,,-99.99,,2013-02-10 17:21:00,
2013-02-10 10:31:00,22.0,15.0,-100.00,ENE,73,2.0,7.0,74,-99.99,,,-99.99,,2013-02-10 17:31:00,
2013-02-10 10:42:00,22.0,15.0,-100.00,WNW,296,3.0,7.0,74,-99.99,,,-99.99,,2013-02-10 17:42:00,
2013-02-10 10:52:00,22.0,15.0,-100.00,WNW,296,3.0,7.0,74,-99.99,,,-99.99,,2013-02-10 17:52:00,
2013-02-10 11:01:00,23.0,15.0,-100.00,West,277,4.0,8.0,71,-99.99,,,-99.99,,2013-02-10 18:01:00,
2013-02-10 11:11:00,25.0,16.0,-100.00,WSW,253,7.0,11.0,68,-99.99,,,-99.99,,2013-02-10 18:11:00,
2013-02-10 11:21:00,25.0,16.0,-100.00,WSW,253,7.0,11.0,68,-99.99,,,-99.99,,2013-02-10 18:21:00,
2013-02-10 11:31:00,25.0,16.0,-100.00,WSW,253,7.0,11.0,68,-99.99,,,-99.99,,2013-02-10 18:31:00,
2013-02-10 11:41:00,25.0,17.0,-100.00,West,259,7.0,12.0,70,-99.99,,,-99.99,,2013-02-10 18:41:00,
2013-02-10 11:52:00,25.0,17.0,-100.00,West,259,7.0,12.0,70,-99.99,,,-99.99,,2013-02-10 18:52:00,
2013-02-10 12:01:00,24.0,16.0,-100.00,WSW,258,8.0,13.0,70,-99.99,,,-99.99,,2013-02-10 19:01:00,
2013-02-10 12:11:00,25.0,17.0,-100.00,WSW,258,7.0,11.0,71,-99.99,,,-99.99,,2013-02-10 19:11:00,
2013-02-10 12:21:00,25.0,17.0,-100.00,WSW,258,7.0,11.0,71,-99.99,,,-99.99,,2013-02-10 19:21:00,
2013-02-10 12:31:00,25.0,17.0,-100.00,WSW,258,7.0,11.0,71,-99.99,,,-99.99,,2013-02-10 19:31:00,
2013-02-10 12:42:00,25.0,18.0,-100.00,West,259,8.0,12.0,74,-99.99,,,-99.99,,2013-02-10 19:42:00,
2013-02-10 12:52:00,25.0,18.0,-100.00,West,259,8.0,12.0,74,-99.99,,,-99.99,,2013-02-10 19:52:00,
2013-02-10 13:01:00,26.0,18.0,-100.00,WSW,257,8.0,12.0,72,-99.99,,,-99.99,,2013-02-10 20:01:00,
2013-02-10 13:11:00,26.0,18.0,-100.00,WSW,256,8.0,13.0,69,-99.99,,,-99.99,,2013-02-10 20:11:00,
2013-02-10 13:21:00,26.0,18.0,-100.00,WSW,256,8.0,13.0,69,-99.99,,,-99.99,,2013-02-10 20:21:00,
2013-02-10 13:31:00,26.0,18.0,-100.00,WSW,256,8.0,13.0,69,-99.99,,,-99.99,,2013-02-10 20:31:00,
2013-02-10 13:42:00,28.0,17.0,-100.00,WSW,258,7.0,13.0,63,-99.99,,,-99.99,,2013-02-10 20:42:00,
2013-02-10 13:52:00,28.0,17.0,-100.00,WSW,258,7.0,13.0,63,-99.99,,,-99.99,,2013-02-10 20:52:00,
2013-02-10 14:02:00,27.0,17.0,-100.00,West,274,8.0,12.0,64,-99.99,,,-99.99,,2013-02-10 21:02:00,
2013-02-10 14:11:00,28.0,18.0,-100.00,West,266,7.0,13.0,66,-99.99,,,-99.99,,2013-02-10 21:11:00,
2013-02-10 14:21:00,28.0,18.0,-100.00,West,266,7.0,13.0,66,-99.99,,,-99.99,,2013-02-10 21:21:00,
2013-02-10 14:31:00,28.0,18.0,-100.00,West,266,7.0,13.0,66,-99.99,,,-99.99,,2013-02-10 21:31:00,
2013-02-10 14:42:00,27.0,17.0,-100.00,West,268,8.0,13.0,66,-99.99,,,-99.99,,2013-02-10 21:42:00,
2013-02-10 14:52:00,27.0,17.0,-100.00,West,268,8.0,13.0,66,-99.99,,,-99.99,,2013-02-10 21:52:00,
2013-02-10 15:01:00,27.0,18.0,-100.00,West,259,9.0,16.0,69,-99.99,,,-99.99,,2013-02-10 22:01:00,
2013-02-10 15:11:00,26.0,17.0,-100.00,WSW,252,8.0,14.0,68,-99.99,,,-99.99,,2013-02-10 22:11:00,
2013-02-10 15:21:00,26.0,17.0,-100.00,WSW,252,8.0,14.0,68,-99.99,,,-99.99,,2013-02-10 22:21:00,
2013-02-10 15:31:00,26.0,17.0,-100.00,WSW,252,8.0,14.0,68,-99.99,,,-99.99,,2013-02-10 22:31:00,
2013-02-10 15:42:00,25.0,17.0,-100.00,West,275,7.0,12.0,69,-99.99,,,-99.99,,2013-02-10 22:42:00,
2013-02-10 15:52:00,25.0,17.0,-100.00,West,275,7.0,12.0,69,-99.99,,,-99.99,,2013-02-10 22:52:00,
2013-02-10 16:02:00,25.0,16.0,-100.00,West,265,7.0,14.0,68,-99.99,,,-99.99,,2013-02-10 23:02:00,
2013-02-10 16:11:00,25.0,17.0,-100.00,West,263,7.0,12.0,70,-99.99,,,-99.99,,2013-02-10 23:11:00,
2013-02-10 16:21:00,25.0,17.0,-100.00,West,263,7.0,12.0,70,-99.99,,,-99.99,,2013-02-10 23:21:00,
2013-02-10 16:31:00,25.0,17.0,-100.00,West,263,7.0,12.0,70,-99.99,,,-99.99,,2013-02-10 23:31:00,
2013-02-10 16:41:00,24.0,16.0,-100.00,West,264,6.0,11.0,68,-99.99,,,-99.99,,2013-02-10 23:41:00,
2013-02-10 16:52:00,24.0,16.0,-100.00,West,264,6.0,11.0,68,-99.99,,,-99.99,,2013-02-10 23:52:00,
2013-02-10 17:01:00,24.0,15.0,-100.00,West,267,7.0,11.0,67,-99.99,,,-99.99,,2013-02-11 00:01:00,
2013-02-10 17:11:00,24.0,15.0,-100.00,WSW,251,4.0,12.0,70,-99.99,,,-99.99,,2013-02-11 00:11:00,
2013-02-10 17:21:00,24.0,15.0,-100.00,WSW,251,4.0,12.0,70,-99.99,,,-99.99,,2013-02-11 00:21:00,
2013-02-10 17:31:00,24.0,15.0,-100.00,WSW,251,4.0,12.0,70,-99.99,,,-99.99,,2013-02-11 00:31:00,
2013-02-10 17:41:00,22.0,15.0,-100.00,WSW,248,8.0,13.0,76,-99.99,,,-99.99,,2013-02-11 00:41:00,
2013-02-10 17:52:00,22.0,15.0,-100.00,WSW,248,8.0,13.0,76,-99.99,,,-99.99,,2013-02-11 00:52:00,
2013-02-10 18:01:00,21.0,15.0,-100.00,WSW,254,6.0,10.0,78,-99.99,,,-99.99,,2013-02-11 01:01:00,
2013-02-10 18:11:00,21.0,15.0,-100.00,WSW,249,7.0,11.0,78,-99.99,,,-99.99,,2013-02-11 01:11:00,
2013-02-10 18:21:00,21.0,15.0,-100.00,WSW,249,7.0,11.0,78,-99.99,,,-99.99,,2013-02-11 01:21:00,
2013-02-10 18:31:00,21.0,15.0,-100.00,WSW,249,7.0,11.0,78,-99.99,,,-99.99,,2013-02-11 01:31:00,
2013-02-10 18:41:00,21.0,16.0,-100.00,East,90,1.0,4.0,81,-99.99,,,-99.99,,2013-02-11 01:41:00,
2013-02-10 18:52:00,21.0,16.0,-100.00,East,90,1.0,4.0,81,-99.99,,,-99.99,,2013-02-11 01:52:00,
2013-02-10 19:01:00,21.0,16.0,-100.00,WSW,254,2.0,6.0,80,-99.99,,,-99.99,,2013-02-11 02:01:00,
2013-02-10 19:11:00,20.0,15.0,-100.00,West,280,4.0,8.0,80,-99.99,,,-99.99,,2013-02-11 02:11:00,
2013-02-10 19:21:00,20.0,15.0,-100.00,West,280,4.0,8.0,80,-99.99,,,-99.99,,2013-02-11 02:21:00,
2013-02-10 19:31:00,20.0,15.0,-100.00,West,280,4.0,8.0,80,-99.99,,,-99.99,,2013-02-11 02:31:00,
2013-02-10 19:41:00,21.0,16.0,-100.00,WSW,252,4.0,6.0,82,-99.99,,,-99.99,,2013-02-11 02:41:00,
2013-02-10 19:52:00,20.0,16.0,-100.00,West,277,3.0,5.0,83,-99.99,,,-99.99,,2013-02-11 02:52:00,
2013-02-10 20:01:00,20.0,16.0,-100.00,West,277,3.0,5.0,83,-99.99,,,-99.99,,2013-02-11 03:01:00,
2013-02-10 20:11:00,21.0,16.0,-100.00,WSW,246,3.0,4.0,82,-99.99,,,-99.99,,2013-02-11 03:11:00,
2013-02-10 20:21:00,21.0,16.0,-100.00,WSW,246,3.0,4.0,82,-99.99,,,-99.99,,2013-02-11 03:21:00,
2013-02-10 20:31:00,21.0,16.0,-100.00,WSW,246,3.0,4.0,82,-99.99,,,-99.99,,2013-02-11 03:31:00,
2013-02-10 20:41:00,20.0,16.0,-100.00,WNW,303,3.0,5.0,83,-99.99,,,-99.99,,2013-02-11 03:41:00,
2013-02-10 20:52:00,19.0,15.0,-100.00,WNW,295,3.0,5.0,83,-99.99,,,-99.99,,2013-02-11 03:52:00,
2013-02-10 21:01:00,19.0,15.0,-100.00,WNW,295,3.0,5.0,83,-99.99,,,-99.99,,2013-02-11 04:01:00,
2013-02-10 21:11:00,19.0,15.0,-100.00,West,268,2.0,6.0,83,-99.99,,,-99.99,,2013-02-11 04:11:00,
2013-02-10 21:21:00,19.0,15.0,-100.00,West,268,2.0,6.0,83,-99.99,,,-99.99,,2013-02-11 04:21:00,
2013-02-10 21:31:00,19.0,15.0,-100.00,West,268,2.0,6.0,83,-99.99,,,-99.99,,2013-02-11 04:31:00,
2013-02-10 21:41:00,18.0,14.0,-100.00,West,259,2.0,4.0,81,-99.99,,,-99.99,,2013-02-11 04:41:00,
2013-02-10 21:52:00,17.0,13.0,-100.00,WSW,246,3.0,4.0,82,-99.99,,,-99.99,,2013-02-11 04:52:00,
2013-02-10 22:01:00,17.0,13.0,-100.00,WSW,246,3.0,4.0,82,-99.99,,,-99.99,,2013-02-11 05:01:00,
2013-02-10 22:11:00,17.0,12.0,-100.00,WSW,245,3.0,5.0,82,-99.99,,,-99.99,,2013-02-11 05:11:00,
2013-02-10 22:22:00,17.0,12.0,-100.00,WSW,245,3.0,5.0,82,-99.99,,,-99.99,,2013-02-11 05:22:00,
2013-02-10 22:31:00,17.0,12.0,-100.00,WSW,245,3.0,5.0,82,-99.99,,,-99.99,,2013-02-11 05:31:00,
2013-02-10 22:41:00,16.0,12.0,-100.00,WSW,246,3.0,5.0,83,-99.99,,,-99.99,,2013-02-11 05:41:00,
2013-02-10 22:52:00,16.0,12.0,-100.00,WSW,246,3.0,5.0,83,-99.99,,,-99.99,,2013-02-11 05:52:00,
2013-02-10 23:01:00,15.0,11.0,-100.00,WSW,255,5.0,7.0,83,-99.99,,,-99.99,,2013-02-11 06:01:00,
2013-02-10 23:11:00,14.0,10.0,-100.00,West,274,4.0,7.0,83,-99.99,,,-99.99,,2013-02-11 06:11:00,
2013-02-10 23:21:00,14.0,10.0,-100.00,West,274,4.0,7.0,83,-99.99,,,-99.99,,2013-02-11 06:21:00,
2013-02-10 23:31:00,14.0,10.0,-100.00,West,274,4.0,7.0,83,-99.99,,,-99.99,,2013-02-11 06:31:00,
2013-02-10 23:42:00,15.0,11.0,-100.00,WSW,255,3.0,6.0,83,-99.99,,,-99.99,,2013-02-11 06:42:00,
2013-02-10 23:52:00,15.0,11.0,-100.00,WSW,255,3.0,6.0,83,-99.99,,,-99.99,,2013-02-11 06:52:00,